Location: Newark
(41.0400°S, 62.7845°W)
Time: 08:24:04
(UTC+00:00)

Transit 2A - Pass Details

Date: 04 December 2021
Orbit: 591 x 967 km, 66.7° (Epoch: 19 January)

Event Time Altitude Azimuth Distance (km) Brightness Sun altitude
Rises 17:58:53 0° 271° (W) 3,106 9.6 59.1°
Reaches altitude 10° 18:03:45 10° 228° (SW) 2,093 8.6 58.2°
Maximum altitude 18:04:25 10° 220° (SW) 2,064 8.5 58.1°
Drops below altitude 10° 18:05:05 10° 212° (SSW) 2,070 8.4 58.0°
Sets 18:09:43 0° 168° (SSE) 2,915 8.8 57.2°
